This is the latest recevied weather packets stored in our database for station/object VK3XEM-13. If no packets are shown the sender has not sent any weather packets the latest 10 day(s).
| Time | Temp. | Humidity | Pressure | Rain* | Wind** | Luminosity | Snow |
|---|---|---|---|---|---|---|---|
| 1778079734 | 7.78° C | 74% | 1016.1 hPa | 0 mm | - | 0 W/m² | - |
| 1778078834 | 7.78° C | 73% | 1016.1 hPa | 0 mm | - | 0 W/m² | - |
| 1778077934 | 7.78° C | 72% | 1016.1 hPa | 0 mm | - | 0 W/m² | - |
| 1778077034 | 7.78° C | 72% | 1016.1 hPa | 0 mm | - | 0 W/m² | - |
| 1778076134 | 7.78° C | 72% | 1016.1 hPa | 0 mm | - | 0 W/m² | - |
| 1778075236 | 8.33° C | 72% | 1016.5 hPa | 0 mm | - | 0 W/m² | - |
| 1778074335 | 8.89° C | 70% | 1016.1 hPa | 0 mm | - | 0 W/m² | - |
| 1778073436 | 9.44° C | 72% | 1016.1 hPa | 0 mm | - | 0 W/m² | - |
| 1778072534 | 9.44° C | 72% | 1016.1 hPa | 0 mm | - | 0 W/m² | - |
| 1778071634 | 9.44° C | 76% | 1016.1 hPa | 0 mm | - | 0 W/m² | - |
| 1778070735 | 9.44° C | 81% | 1015.8 hPa | 0 mm | - | 0 W/m² | - |
| 1778069834 | 9.44° C | 83% | 1015.8 hPa | 0 mm | - | 0 W/m² | - |
| 1778068934 | 9.44° C | 83% | 1015.4 hPa | 0.25 mm | - | 0 W/m² | - |
| 1778068034 | 10° C | 83% | 1015.4 hPa | 0.25 mm | - | 0 W/m² | - |
| 1778067134 | 10° C | 84% | 1015.4 hPa | 0.25 mm | - | 0 W/m² | - |
| 1778066234 | 10° C | 86% | 1015.4 hPa | 0.25 mm | - | 0 W/m² | - |
| 1778065334 | 10° C | 89% | 1015.1 hPa | 0.25 mm | - | 0 W/m² | - |
| 1778064435 | 10.56° C | 90% | 1014.8 hPa | 2.54 mm | - | 0 W/m² | - |
| 1778063534 | 10.56° C | 91% | 1014.8 hPa | 3.56 mm | - | 0 W/m² | - |
| 1778062634 | 11.11° C | 90% | 1014.4 hPa | 3.56 mm | - | 0 W/m² | - |
| 1778061734 | 11.11° C | 91% | 1014.1 hPa | 4.32 mm | - | 0 W/m² | - |
| 1778060834 | 12.22° C | 90% | 1013.4 hPa | 2.79 mm | - | 0 W/m² | - |
| 1778059935 | 12.22° C | 91% | 1013.1 hPa | 6.6 mm | - | 0 W/m² | - |
| 1778059035 | 12.22° C | 91% | 1013.4 hPa | 7.87 mm | - | 0 W/m² | - |
| 1778058134 | 12.22° C | 91% | 1013.7 hPa | 7.11 mm | - | 0 W/m² | - |
* Rain latest hour (hover to see other rain measurements)
** Current wind speed in m/s (hover to see current wind gust speed)